K5AGY Weather Reports


Display with metric or nautical units.
time (UTC)temp
F
wind
direction
speed
MPH
gust
MPH
rain 1hr
in
rain 24hr
in
rain mn
in
humidity
%
barometer
mb
20260503013023 67 23 0.0 0.0 0.00 0.00 0.00 54 1020.1
20260503011600 69 23 0.0 0.0 0.00 0.00 0.00 48 1020.0
20260503010038 71 23 0.0 1.0 0.00 0.00 0.00 46 1019.6
20260503004512 72 23 0.0 1.0 0.00 0.00 0.00 45 1019.6
20260503003052 73 21 0.0 4.0 0.00 0.00 0.00 43 1019.7
20260503001541 74 24 0.0 3.0 0.00 0.00 0.00 44 1019.5
20260503000058 73 359 1.0 7.0 0.00 0.00 0.00 42 1019.6
20260502234535 73 341 3.0 8.0 0.00 0.05 0.00 44 1019.4
20260502233004 74 346 5.0 11.0 0.00 0.05 0.00 42 1019.3
20260502231539 74 27 4.0 10.0 0.00 0.05 0.00 42 1019.3
20260502230012 74 16 3.0 11.0 0.00 0.05 0.00 42 1019.2
20260502224549 74 360 7.0 13.0 0.00 0.07 0.00 42 1019.2
20260502223021 74 20 2.0 10.0 0.00 0.07 0.00 43 1019.3
20260502221600 74 32 3.0 12.0 0.00 0.07 0.00 42 1019.4
20260502220034 73 344 7.0 13.0 0.00 0.07 0.00 41 1019.4
20260502214503 73 26 10.0 16.0 0.00 0.07 0.00 43 1019.5
20260502213043 73 11 4.0 9.0 0.00 0.07 0.00 45 1019.6
20260502211511 73 356 4.0 14.0 0.00 0.07 0.00 45 1019.8
20260502210046 73 354 10.0 15.0 0.00 0.07 0.00 43 1020.0
20260502204515 72 356 7.0 17.0 0.00 0.07 0.00 43 1020.2
20260502203051 72 41 3.0 13.0 0.00 0.07 0.00 45 1020.4
20260502201526 72 39 8.0 14.0 0.00 0.07 0.00 46 1020.5
20260502200059 72 356 6.0 13.0 0.00 0.07 0.00 48 1020.5
20260502194537 72 39 6.0 13.0 0.00 0.16 0.00 47 1020.6
20260502193002 71 4 9.0 20.0 0.00 0.16 0.00 45 1020.7
20260502191537 71 8 6.0 12.0 0.00 0.16 0.00 51 1020.8
20260502190007 70 23 8.0 16.0 0.00 0.16 0.00 47 1020.9
20260502184557 70 56 7.0 13.0 0.00 0.43 0.00 49 1021.1
20260502183012 70 22 7.0 15.0 0.00 0.43 0.00 48 1021.4
20260502181553 70 1 5.0 16.0 0.00 0.43 0.00 49 1021.6
20260502163015 66 349 6.0 14.0 0.00 0.64 0.00 57 1022.7
20260502161545 65 340 7.0 13.0 0.00 0.64 0.00 59 1022.6
20260502151533 62 358 5.0 14.0 0.00 0.78 0.00 63 1021.9
20260502123102 52 1 5.0 10.0 0.00 1.80 0.00 80 1020.3
20260502121527 52 330 5.0 9.0 0.00 1.80 0.00 80 1020.0
20260502114530 52 353 7.0 13.0 0.00 1.98 0.00 81 1019.6
20260502113003 51 345 5.0 11.0 0.00 1.98 0.00 81 1019.5
20260502111541 51 329 7.0 12.0 0.00 1.98 0.00 82 1019.3
20260502110007 51 356 6.0 10.0 0.00 1.98 0.00 82 1019.1
20260502104550 51 335 3.0 8.0 0.00 2.52 0.00 83 1019.1
20260502103014 51 338 1.0 3.0 0.00 2.52 0.00 83 1018.9
20260502101611 51 340 0.0 2.0 0.00 2.52 0.00 83 1018.8
20260502071513 53 354 7.0 13.0 0.00 3.13 0.00 80 1017.2
20260502070150 54 355 8.0 13.0 0.00 3.13 0.00 80 1017.1
20260502064522 54 326 10.0 16.0 0.00 3.13 0.00 80 1016.9
20260502063056 54 46 9.0 15.0 0.00 3.13 0.00 79 1016.6
20260502061526 55 351 7.0 18.0 0.00 3.13 0.00 78 1017.1
20260502060058 55 12 7.0 17.0 0.00 3.13 0.00 78 1017.4
20260502054526 55 338 7.0 12.0 0.00 3.13 0.00 79 1017.3
20260502053114 56 330 7.0 13.0 0.00 3.13 0.00 80 1017.2
20260502051534 56 38 6.0 12.0 0.00 3.13 0.00 80 1017.0
20260502050101 56 14 6.0 11.0 0.00 3.13 0.00 80 1017.0
20260502044533 56 25 7.0 16.0 0.00 3.16 3.13 79 1017.1
20260502043005 56 17 10.0 20.0 0.00 3.16 3.13 78 1016.9
20260502041542 56 23 9.0 15.0 0.00 3.16 3.13 80 1016.7
20260502040005 56 349 8.0 15.0 0.00 3.16 3.13 80 1016.5
20260502034538 56 338 7.0 14.0 0.00 3.19 3.13 80 1016.3
20260502033011 56 15 6.0 14.0 0.00 3.19 3.13 80 1016.3
20260502031549 56 342 8.0 14.0 0.00 3.19 3.13 80 1016.0
20260502030016 56 33 7.0 18.0 0.00 3.19 3.13 80 1015.9
20260502024548 56 9 11.0 21.0 0.00 3.19 3.13 80 1015.8
20260502023018 57 328 11.0 20.0 0.00 3.19 3.13 80 1015.5
20260502021545 57 345 12.0 20.0 0.00 3.19 3.13 81 1015.0
20260502020013 57 2 10.0 20.0 0.00 3.19 3.13 81 1014.7
20260502014543 57 3 13.0 20.0 0.00 3.19 3.13 82 1014.4